Regional Weather Roundup
Issued by NWS San Diego, CA

Home | Current Version | Previous Version | Text Only | Print | Product List | Glossary On
Versions: 1 2 3 4 5 6 7 8 9 10 11 12 13 14 15 16 17 18 19 20 21 22 23 24 25 26 27
000
ASUS46 KSGX 291111
RWRSGX

SAN DIEGO HOURLY WEATHER ROUNDUP
NATIONAL WEATHER SERVICE SAN DIEGO CA
400 AM PDT WED MAR 29 2017

NOTE: "FAIR" INDICATES FEW OR NO CLOUDS BELOW 12,000 FEET WITH NO
SIGNIFICANT WEATHER AND/OR OBSTRUCTIONS TO VISIBILITY.

CAZ042-043-060-061-PZZ750-775-291200-

GREATER SAN DIEGO AREA

CITY           SKY/WX    TMP DP  RH WIND       PRES   REMARKS
SAN DIEGO AP   CLEAR     57  42  57 CALM      30.01S
NATIONAL CITY    N/A     54  46  75 CALM      30.00S
CHULA VISTA      N/A     50  46  85 E1        29.92S
IMPERIAL BEACH CLEAR     53  44  71 NE3       29.99S
BROWN FIELD    CLEAR     49  44  83 NE5       29.99S
MIRAMAR MCAS   CLEAR     53  42  66 VRB3      29.99S
MONTGOMERY FLD CLEAR     54  42  64 W3        30.00R

$$

NORTH SAN DIEGO COUNTY

CITY           SKY/WX    TMP DP  RH WIND       PRES   REMARKS
CAMP PENDLETON CLEAR     45  42  89 CALM      30.00F
OCEANSIDE AP   NOT AVBL
OCEANSIDE HBR    N/A     52  43  72 E6        30.02S
VISTA            N/A     51  44  78 CALM      29.98S
CARLSBAD       CLEAR     54  44  69 CALM      29.98S
DEL MAR          N/A     54  44  69 CALM      30.02R
LA JOLLA SCRIP   N/A     58  50  74 NE2       29.99S
FALLBROOK        N/A     56  44  64 E1        29.98F
ESCONDIDO        N/A     51  43  73 CALM      30.01S
SAN MARCOS       N/A     55  44  67 CALM      30.00S
POWAY            N/A     45  40  83 CALM      30.02S

$$

EAST SAN DIEGO COUNTY

CITY           SKY/WX    TMP DP  RH WIND       PRES   REMARKS
RAMONA         CLEAR     38  38 100 CALM      30.01S
SANTEE LAKES     N/A     46  42  86 CALM      30.00S
LA MESA          N/A     55  43  64 CALM      29.93S
JAMUL            N/A     47  40  76 CALM      30.01S
DESCANSO N       N/A     52  24  33 NE3       29.99S
CAMPO            N/A     35  27  72 VRB3      30.00S

$$

ORANGE COUNTY AND THE LOS ANGELES BASIN

CITY           SKY/WX    TMP DP  RH WIND       PRES   REMARKS
JOHN WAYNE AP  CLEAR     55  45  68 NE3       29.99F
LAKE FOREST FR   N/A     55  30  38 CALM      29.88F
HUNTINGTON BCH   N/A     51  49  92 CALM      30.01F
LOS ALAMITOS   FAIR      50  48  92 CALM      29.99F
FULLERTON      CLEAR     54  47  77 CALM      29.99F
LONG BEACH     CLEAR     57  51  80 CALM      30.00F
L.A. AP        CLEAR     57  51  80 SE6       30.00F
L.A. DOWNTOWN  CLEAR     58  45  62 CALM      30.00F

$$

THE INLAND EMPIRE

CITY           SKY/WX    TMP DP  RH WIND       PRES   REMARKS
CORONA         CLEAR     41  36  82 CALM      30.01F
CHINO          CLEAR     50  41  71 CALM      30.01F
ONTARIO        CLEAR     58  31  35 NW5       30.00F
SAN BERNARDINO FAIR      52  28  40 E8        30.02S
RIVERSIDE AP   CLEAR     62  31  31 CALM      30.00F
MORENO VALLEY    N/A     54  37  53 CALM      28.15S
MARCH ARB      CLEAR     38  36  91 CALM      30.02F
HORSETHIEF CYN   N/A     51  27  38 W3        30.02S
PERRIS           N/A     48  41  76 CALM      30.05S
HEMET EAST       N/A     54  20  26 NE1       30.07S
FRENCH VALLEY  FAIR      46  37  71 CALM      30.04S
TEMECULA         N/A     48  42  78 CALM      30.10R

$$

SAN BERNARDINO AND RIVERSIDE COUNTY MOUNTAINS

CITY           SKY/WX    TMP DP  RH WIND       PRES   REMARKS
BIG BEAR AP    CLEAR     34  18  51 CALM      30.21F
ANGELUS OAKS     N/A     48  20  33 CALM      30.00S
PINE COVE        N/A     46  17  32 CALM      30.07F

$$

SOUTHERN DESERT INCLUDING THE COACHELLA VALLEY

CITY           SKY/WX    TMP DP  RH WIND       PRES   REMARKS
PALM SPRINGS   CLEAR     70  23  17 W5        30.01S
PALM DESERT      N/A     73  24  15 CALM      29.88S
THERMAL        CLEAR     59  25  27 CALM      29.94F
BLYTHE         CLEAR     67  26  21 W8        29.98R
IMPERIAL AP    CLEAR     53  30  41 W8        29.95S
EL CENTRO NAS  CLEAR     54  21  27 NW10      29.97F
YUMA AZ        CLEAR     64  23  21 N8        29.94

$$

UPPER DESERT

CITY           SKY/WX    TMP DP  RH WIND       PRES   REMARKS
VICTORVILLE AP CLEAR     37  28  70 CALM      30.13S
HESPERIA         N/A     41  28  59 W1        30.26S
PALMDALE       CLEAR     41  33  73 S7        30.13F
LANCASTER      CLEAR     39  32  76 S3        30.13S
EDWARDS AFB    CLEAR     38  33  80 SW6       30.11S WCI  34
DAGGETT        CLEAR     49  27  42 W14       30.10S
29 PALMS N     CLEAR     57  17  21 NW10      30.14R
NEEDLES        CLEAR     66  24  20 N13       30.03S

$$

REGIONAL REPORTS

CITY           SKY/WX    TMP DP  RH WIND       PRES   REMARKS
SANTA BARBARA  CLEAR     48  42  80 CALM      30.01S
SANDBERG       CLEAR     51  26  37 N5        30.16F
LAS VEGAS NV   PTCLDY    56  26  31 NW6       30.11S
PHOENIX AZ     PTCLDY    59  30  33 SW6       29.90F
TIJUANA        CLEAR     52  41  66 CALM      30.02
ENSENADA NW      N/A     56  32  39 NE1       29.96S

$$

OFFSHORE ISLANDS

CITY           SKY/WX    TMP DP  RH WIND       PRES   REMARKS
CATALINA ARPT  CLEAR     65  26  23 E8        30.03S
SAN NICOLAS IS CLEAR    N/A N/A N/A NW13      30.01S

$$

MARINE AND OFFSHORE BUOY REPORTS

STATION/POSITION SKY/WX   TEMP    WIND        PRES    VSBY  SWELL
                          AIR SEA DIR/SP/G                  HT/PER/DIR
                          (F)     (DEG/KT/KT) (MB)    (MI)  (FT/S/D)
TANNER BANKS               58 58  330/ 12/ 14 1015.6F        11/320/17
S CLEMENTE BASIN           59 60  300/  2/  4 1015.3F         8/300/17
SAN NICOLAS IS.               57                N/A           8/290/18
SO. S. ROSA ISLA           57 55  320/ 17/ 21 1016.0F        10/300/17
W. S. BARBARA CH           57 54  330/ 14/ 16 1016.7F        10/280/17
M. S. BARBARA CH                                N/A           8/230/17
S. MONICA BASIN            61 60  310/  4/  6 1015.6S         5/270/17
S PEDRO CHANNEL               59                N/A           3/270/17
CMP PENDLETON NS              60                N/A           2/240/18
OCEANSIDE OFFSHR              60                N/A           2/250/18
TORREY PINES OTR              62                N/A           3/260/17
POINT LOMA SOUTH              62                N/A           5/280/17

$$





USA.gov is the U.S. government's official web portal to all federal, state and local government web resources and services.